Location: Unspecified
(47.4992°N, 121.7766°W)
Time: 15:39:34
(UTC-07:00)

Okean 3 - Pass Details

Date: 11 August 2024
Orbit: 557 x 581 km, 82.5° (Epoch: 08 September)

Event Time Altitude Azimuth Distance (km) Brightness Sun altitude
Rises 02:51:54 0° 347° (NNW) 2,756 7.7 -23.6°
Reaches altitude 10° 02:54:06 10° 343° (NNW) 1,854 6.6 -23.4°
Enters shadow 02:57:32 52° 301° (WNW) 703 3.8 -23.2°
